Regional Weather Roundup
Issued by NWS Portland, ME

Current Version | Previous Version | Text Only | Print | Product List | Glossary Off
Versions: 1 2 3 4 5 6 7 8 9 10 11 12 13 14 15 16 17 18 19 20 21 22 23 24 25 26 27 28 29 30 31 32 33 34 35 36 37 38 39 40 41 42 43 44 45 46 47 48 49 50

000
ASUS41 KGYX 170805
RWRGYX
WEATHER ROUNDUP FOR MAINE AND NEW HAMPSHIRE
NATIONAL WEATHER SERVICE GRAY ME
400 AM EDT WED SEP 17 2014

MEZ002-005-006-010-012-015-018-020-021-024-026-027-029-170900-
MAINE

CITY           SKY/WX    TMP DP  RH WIND       PRES   REMARKS
PORTLAND       CLEAR     47  45  93 SW3       29.97S
SANFORD        CLEAR     43  37  81 CALM      29.98R
BAR HARBOR     CLEAR     50  50 100 CALM      29.95S
WISCASSET      CLOUDY    47  46  97 CALM      29.98R
ROCKLAND       MOCLDY    48  48 100 W7        29.95S
FRYEBURG       FOG       41  40  96 CALM      29.98S VSB 3/4
LEWISTONAUBURN CLOUDY    46  43  87 CALM      29.97S VSB 1/2
AUGUSTA        FOG       47  47 100 CALM      29.96S VSB 3/4
WATERVILLE     CLEAR     48  45  87 CALM      29.91S
BANGOR         PTCLDY    46  45  96 W6        29.95S FOG
GREENVILLE       N/A     43  41  93 CALM      29.91S
MILLINOCKET    FOG       42  41  96 CALM      29.93S VSB 3/4
HOULTON        CLOUDY    49  48  97 S6        29.88S
PRESQUE ISLE   CLEAR     41  37  87 CALM      29.86S
FRENCHVILLE    CLEAR     43  40  89 W12       29.83R
CARIBOU        CLEAR     45  43  93 SW5       29.85S
$$

NHZ002-005-008-009-011-012-014-170900-
NEW HAMPSHIRE

CITY           SKY/WX    TMP DP  RH WIND       PRES   REMARKS
PORTSMOUTH     PTCLDY    49  48  97 NW5       29.97R
ROCHESTER      FOG       46  44  93 NW6       29.97S VSB 3/4
NASHUA         CLEAR     45  43  93 CALM      30.00R
MANCHESTER     PTCLDY    50  47  89 CALM      29.98R FOG
CONCORD        FOG       49  49 100 CALM      29.99F VSB 1/2
LACONIA        CLOUDY    50  48  93 S5        29.98R
PLYMOUTH       FOG       46  46 100 NW3       30.00R VSB 1/2
BERLIN         FOG       39  39 100 CALM      29.98S VSB 1/4
WHITEFIELD     FOG       44  42  93 CALM      29.99S VSB 1/4
JAFFREY        PTCLDY    42  41  96 CALM      30.01S
LEBANON        FOG       47  44  90 S5        30.00S VSB 1/4
MT WASHINGTON  FOG       32  32 100 W35         N/A  VSB 0   WCI  17
$$

VTZ005-007-008-170900-
VERMONT

CITY           SKY/WX    TMP DP  RH WIND       PRES   REMARKS
ST JOHNSBURY     N/A     45  45 100 MISG      29.98S
MONTPELIER     PTCLDY    40  40 100 CALM      30.02S
BURLINGTON     CLEAR     47  44  90 CALM      29.99S
$$

MAZ007-012-024-CTZ003-RIZ002-NYZ038-NYZ072-170900-
SOUTHERN NEW ENGLAND AND NY

CITY           SKY/WX    TMP DP  RH WIND       PRES   REMARKS
BOSTON         PTCLDY    56  51  84 W8        29.98S
WORCESTER      CLEAR     51  45  79 NW14      29.99F
NANTUCKET      PTCLDY    58  55  90 CALM      29.98S
PROVIDENCE     PTCLDY    54  49  83 W7        30.00S
HARTFORD       CLEAR     49  46  90 S3        30.02R
ALBANY         CLEAR     49  44  83 S5        30.04S
NEW YORK CITY  CLEAR     61  51  70 CALM      30.02S
$$

ANZ081-ANZ082-ANZ150-NHZ014-MEZ023>029-170900-
COASTAL MARINE OBSERVATIONS

STATION/POSITION TIME  TEMP    WIND        PRES    WAVE
                       AIR SEA DIR/SP/G            HT/PER
                 (UTC) (F)     (DEG/KT/KT) (MB)    (FT/S)
MATINICUS ROCK   0700          290/ 13/ 14 1013.8F
PORTLAND WX BUOY 0750   56 59  290/  6/  6 1014.5F   1/12
WELLS            0700   52 59  320/  2/  5 1013.9F
ISLE OF SHOALS   0700   57     300/  8/  9 1014.1F
JEFFREYS LEDGE   0721      61                N/A     2/14
CASHES LEDGE BUO 0750   61 64              1013.8
$$

.............KEY..............
   WCI - WIND CHILL
   TC  - TEMPERATURE IN CELSIUS
   VSB - VISIBILITY IN MILES
   HX  - HEAT INDEX
   FAIR- INDICATES FEW OR NO CLOUDS BELOW 12,000 FT, WITH NO
         SIGNIFICANT WEATHER AND/OR OBSTRUCTIONS TO VISIBILITY.




USA.gov is the U.S. government's official web portal to all federal, state and local government web resources and services.